Weather Service Report


154 
ASUS43 KLSX 220810
RWRMO 

WEATHER SUMMARY FOR MISSOURI
NATIONAL WEATHER SERVICE SPRINGFIELD MO
200 AM CST WED FEB 22 2017

NOTE: "FAIR" INDICATES FEW OR NO CLOUDS BELOW 12,000 FEET WITH NO
       SIGNIFICANT WEATHER AND/OR OBSTRUCTIONS TO VISIBILITY.
       CURRENT SKY AND/OR WEATHER CONDITIONS ARE NOT AVAILABLE FOR
       CHILLICOTHE AND FARMINGTON.

MOZ001>031-035>038-043-044-053-054-220900-
...NORTHERN AND WESTERN MISSOURI...
  
CITY           SKY/WX    TMP DP  RH WIND       PRES   REMARKS
KANSAS CTY INT PTCLDY    47  35  63 S9        29.83F                  
KANSAS C DTWN  CLEAR     46  38  73 CALM      29.83F                  
LEE'S SUMMIT   CLEAR     54  46  74 S9        29.85F                  
ST JOSEPH      CLEAR     43  37  79 S5        29.82F                  
CHILLICOTHE      N/A     45  41  86 S3        29.84F                  
KIRKSVILLE     CLEAR     54  53  97 S9        29.84F                  
     
$$
MOZ066>068-077>081-088>096-101>105-220900-
...SOUTHWEST MISSOURI...
  
CITY           SKY/WX    TMP DP  RH WIND       PRES   REMARKS
SPRINGFIELD    CLOUDY    53  53 100 S6        29.90F FOG              
JOPLIN         CLEAR     51  51 100 S7        29.90F                  
BRANSON        FOG       52  52 100 CALM      29.93R VSB<1/4          
               
$$
MOZ032>034-039>042-045>050-055>058-069>072-220900-
...CENTRAL MISSOURI...  
  
CITY           SKY/WX    TMP DP  RH WIND       PRES   REMARKS
COLUMBIA       FOG       51  51 100 S7        29.88F VSB 1/4          
JEFFERSON CITY FOG       48  47  96 E3        29.89F VSB 1/4          
ROLLA          FOG       51  51 100 S6        29.88R VSB 1/4          
SEDALIA        CLEAR     53  52  96 S7        29.88F FOG              
WHITEMAN AFB   CLEAR     49  49 100 S8        29.86F                  
WARRENSBURG    CLEAR     48  45  87 S6        29.86F                  
OSAGE BEACH    FOG       47  46  97 CALM      29.90F VSB 1/4          
               
$$
MOZ051-052-059>065-220900-
...EAST CENTRAL MISSOURI...
  
CITY           SKY/WX    TMP DP  RH WIND       PRES   REMARKS
ST LOUIS INTL  CLOUDY    55  51  86 CALM      29.88S                  
SPIRIT OF STL  FOG       54  54 100 CALM      29.88R VSB 1/4          
ST CHARLES     FOG       51  51 100 NW5       29.88S VSB 1/4          
                   
$$
MOZ072>076-082>087-097>100-106>115-220900-
...SOUTH CENTRAL AND SOUTHEAST MISSOURI...
  
CITY           SKY/WX    TMP DP  RH WIND       PRES   REMARKS
CAPE GIRARDEAU CLOUDY    55  53  93 CALM      29.87F                  
FARMINGTON     CLOUDY    56  54  93 CALM      29.90S                  
POPLAR BLUFF   CLOUDY    58  58 100 NW3       29.88S                  
WEST PLAINS    CLOUDY    56  54  93 CALM      29.92S FOG              
                                       
$$
  

Return to Home page


Western Regional Climate Center, wrcc@dri.edu